Wind_Speed
14 14 14 14 14 13 13 12 12 12 12 12 11 11 11 11 10 10 10 10 11 11 10 10 10 11 12 12 12 12 13 13 14 14 14 14 14 13 13 14 15 15 16
14 14 14 14 14 13 13 13 13 12 12 12 11 10 9 9 9 9 10 10 10 10 10 10 11 11 12 12 12 12 13 13 13 13 13 13 13 13 14 15 16 17 18
15 15 14 14 14 13 14 13 13 13 13 12 12 11 11 11 11 11 10 10 9 10 10 10 11 11 11 12 12 12 12 13 13 13 14 14 14 15 15 16 17 18 19
15 15 14 14 14 13 14 14 14 14 13 12 13 12 12 12 12 11 11 10 10 10 11 11 11 11 12 13 13 13 13 13 14 14 14 15 16 16 16 17 18 19 20
16 15 15 15 15 14 14 14 13 13 13 13 13 13 13 12 11 11 12 12 12 12 12 12 12 12 13 14 14 14 14 14 15 15 15 16 16 17 18 19 20 20 21
16 16 15 15 15 15 15 14 14 14 13 13 13 14 14 13 12 12 12 12 13 13 13 13 13 13 14 14 15 14 15 15 16 16 17 17 17 18 19 20 21 22 23
16 16 16 16 16 16 15 15 15 14 14 14 14 14 15 15 14 14 13 13 13 13 13 14 14 14 15 15 15 16 16 17 17 18 18 19 20 21 22 23 24 25 26
16 16 16 17 17 16 16 16 15 15 15 15 15 15 15 15 15 14 14 14 14 14 14 15 16 16 16 16 17 17 19 19 19 20 21 22 22 23 24 25 26 27 28
17 16 16 17 17 17 16 16 16 16 16 17 15 15 15 15 15 14 15 15 15 15 16 16 17 17 17 18 19 19 20 20 21 21 22 23 24 25 26 27 28 29 29
17 16 17 17 17 17 17 17 17 17 18 17 16 15 15 15 15 15 16 16 16 16 17 17 17 17 18 19 19 20 21 21 22 22 24 25 26 27 28 29 29 30 30
16 17 17 18 18 18 18 18 18 18 18 17 17 17 16 16 16 16 16 16 17 18 18 18 18 19 19 19 20 21 22 23 23 24 25 26 26 28 29 30 30 30 31
17 17 17 17 18 18 18 17 17 18 18 18 17 17 17 17 17 17 17 17 18 19 20 20 20 20 20 21 22 22 23 24 24 25 25 26 27 28 30 30 31 31 32
17 17 17 17 17 18 18 17 17 17 17 18 18 18 18 18 18 18 19 19 20 21 21 21 21 21 22 22 23 24 25 25 24 25 26 27 29 30 30 31 32 33 34
17 17 17 17 17 17 18 17 17 17 17 18 18 19 19 19 19 20 20 20 21 21 21 21 21 22 23 23 24 25 25 25 26 26 27 28 29 30 31 32 33 34 35
17 17 17 17 17 18 18 18 18 18 17 18 18 19 19 19 20 21 21 21 22 22 22 23 23 24 24 24 25 26 26 27 27 28 29 30 31 32 32 33 34 35 35
17 17 17 18 18 19 19 19 19 19 19 19 19 19 19 19 20 21 21 22 22 23 23 23 24 24 25 26 26 27 28 28 29 30 31 31 32 33 34 35 36 36 37
18 17 17 18 18 19 19 19 19 19 20 20 20 20 20 20 20 21 22 23 24 24 24 24 25 26 26 27 28 28 29 30 30 31 32 33 34 34 35 36 37 38 38
18 18 19 19 19 19 19 19 20 21 21 20 20 20 21 21 22 22 23 24 25 25 25 26 27 27 27 28 29 30 30 31 32 33 34 35 35 36 36 37 38 39 40
17 18 18 19 19 20 20 21 21 21 21 21 21 22 22 23 24 24 25 25 26 26 27 27 27 28 28 29 30 31 32 33 34 35 35 36 36 37 38 38 39 40 41
19 19 19 19 19 20 21 21 22 22 23 23 23 23 23 24 25 26 26 27 27 28 28 28 28 28 29 30 31 32 33 34 35 35 36 36 36 37 38 39 40 41 42
21 20 20 20 20 20 20 21 22 22 23 23 23 24 25 25 25 26 26 27 28 29 29 28 28 29 30 32 33 34 34 35 36 36 36 37 37 38 39 40 41 42 43
22 21 21 21 21 21 21 21 22 22 22 23 24 25 25 25 26 26 27 27 28 29 29 29 29 31 32 33 34 35 36 36 36 37 37 38 38 39 40 41 42 43 44
22 22 22 22 22 22 23 23 23 23 23 24 25 25 25 25 26 26 27 27 28 28 29 30 31 33 34 34 35 36 36 37 37 38 38 39 39 40 40 42 43 44 44
23 23 23 23 23 23 23 23 23 23 24 24 25 25 26 27 27 27 28 28 28 29 30 31 32 33 34 35 35 36 37 37 38 38 39 39 40 41 42 42 43 44 44
24 24 24 23 23 23 23 23 24 24 24 25 25 26 26 27 28 28 28 28 29 30 31 32 33 33 34 34 35 36 37 37 38 39 39 40 41 42 42 43 44 44 44
25 25 25 25 25 25 24 24 25 25 26 26 27 27 27 28 28 28 29 29 30 31 32 33 33 34 34 34 35 36 37 38 38 39 40 41 42 43 43 43 44 44 44
Wind_Direction
255 252 251 249 253 259 256 254 257 260 261 265 267 263 263 261 265 270 276 283 286 290 293 297 301 305 307 310 308 311 313 316 318 319 320 320 318 314 310 310 308 308 309
253 252 251 250 253 255 253 252 256 261 263 265 263 262 263 264 267 271 279 284 289 291 293 296 301 306 309 310 308 308 312 315 317 319 321 322 319 315 312 310 309 309 310
252 252 252 252 251 248 249 252 256 258 260 259 257 258 263 265 265 270 276 280 286 292 295 295 298 304 307 309 309 309 312 313 314 316 318 320 318 315 314 314 313 312 311
251 250 250 251 252 248 247 251 255 257 257 254 256 257 260 263 268 270 273 277 283 289 293 296 296 298 303 306 306 306 308 310 311 313 316 317 317 316 315 314 313 312 311
249 249 249 251 253 254 253 254 255 256 258 258 258 258 258 260 265 270 271 273 278 283 288 294 295 299 301 303 304 303 305 308 308 309 312 313 314 314 313 312 310 310 309
248 249 249 251 254 256 253 252 254 257 258 257 259 261 258 259 264 271 275 274 276 280 287 292 292 296 300 303 304 304 306 306 308 309 309 310 311 311 311 311 310 312 310
248 249 251 252 253 254 252 251 254 257 259 257 258 259 259 262 265 270 272 275 279 281 285 290 290 291 297 299 302 303 302 304 306 308 309 309 309 311 312 313 313 314 312
248 250 252 251 250 250 250 253 255 256 256 257 259 258 259 263 265 268 270 274 280 284 287 290 289 290 294 296 299 302 301 302 302 304 305 307 308 309 310 310 311 311 311
250 253 252 250 248 247 249 253 256 256 258 258 258 257 257 261 265 268 271 274 278 283 286 290 289 290 292 294 297 302 303 301 301 301 303 305 306 307 308 308 309 309 309
255 255 254 253 249 246 248 252 254 256 259 256 256 258 258 261 265 269 271 274 276 281 285 289 289 290 292 294 298 301 303 302 301 302 303 304 305 306 307 307 308 309 309
257 258 257 254 250 249 251 254 255 257 258 256 255 257 258 260 264 269 273 275 276 279 283 286 287 290 294 296 300 302 304 303 302 303 304 305 306 306 307 307 308 308 309
259 259 258 254 252 252 255 257 258 259 257 256 255 255 257 261 264 268 272 276 279 280 282 285 287 290 294 297 300 302 304 303 303 305 306 307 308 309 309 308 308 309 309
256 257 255 255 254 254 255 257 261 260 259 259 257 257 259 263 265 267 271 275 277 281 285 287 288 291 294 295 299 301 303 304 304 304 306 308 309 310 311 310 308 309 310
256 258 258 258 256 255 254 258 261 263 263 262 262 261 262 265 266 269 272 277 279 282 285 288 289 292 294 295 297 300 302 304 304 304 306 307 308 309 310 311 311 311 311
258 259 260 258 256 258 257 259 261 263 265 264 264 264 263 265 267 270 274 278 281 281 284 289 290 291 293 294 297 298 300 302 303 304 305 306 307 308 309 311 312 312 312
259 260 261 261 259 259 261 261 262 263 265 266 266 266 266 267 268 271 273 278 281 283 286 290 291 292 293 295 297 298 300 302 303 303 305 306 307 308 310 311 312 312 312
261 262 263 263 263 263 262 260 260 262 265 266 266 267 269 269 269 272 275 278 281 284 287 290 292 294 295 296 297 299 300 302 303 304 305 305 306 307 309 310 311 312 312
262 262 263 264 266 266 264 262 261 262 265 267 268 269 272 272 271 274 277 280 283 286 289 291 293 294 294 296 298 300 301 302 303 303 304 305 305 307 308 310 311 311 312
264 265 266 265 266 266 266 265 265 265 267 267 268 270 273 274 274 276 278 281 284 287 290 292 293 294 295 297 299 300 302 302 303 303 303 304 305 307 308 309 310 312 313
267 268 268 267 266 267 267 267 267 267 267 268 269 271 274 275 277 278 280 281 284 286 288 290 292 294 295 297 299 301 303 304 303 303 304 305 306 307 309 310 311 312 313
267 268 268 268 267 268 269 269 268 268 269 269 270 272 274 276 278 280 282 283 285 286 287 289 291 294 295 297 299 301 303 304 304 304 304 305 307 308 309 310 312 313 313
264 265 265 266 268 270 272 272 271 270 271 272 272 273 275 277 279 281 284 285 285 286 287 289 291 293 295 297 299 301 303 303 304 304 304 305 306 308 309 310 312 312 313
264 264 264 265 267 270 271 272 271 271 273 274 274 275 277 279 280 281 284 285 286 287 288 289 291 293 295 297 298 301 302 303 304 304 305 305 306 308 309 310 311 312 313
263 264 264 265 266 268 270 271 272 272 274 275 276 276 278 280 281 282 285 286 287 289 291 292 293 294 296 298 299 301 302 303 304 305 305 306 307 308 309 310 311 312 312
262 263 263 265 266 268 270 272 273 273 274 276 277 278 279 281 283 284 285 287 289 290 292 293 295 296 297 299 300 300 302 303 303 304 305 306 307 308 309 310 311 313 313
262 262 263 265 267 268 270 272 274 276 277 277 277 279 280 282 284 286 286 288 289 290 292 294 296 297 298 299 300 301 302 303 304 304 305 307 308 309 310 311 312 313 314
Height
5840 5842 5843 5844 5845 5846 5847 5848 5849 5850 5851 5851 5852 5852 5853 5853 5854 5855 5855 5855 5854 5854 5854 5853 5852 5852 5851 5850 5849 5847 5846 5844 5842 5840 5837 5835 5833 5832 5831 5831 5830 5829 5827
5837 5838 5840 5841 5842 5843 5844 5845 5846 5847 5848 5848 5849 5849 5850 5851 5851 5852 5852 5852 5852 5851 5851 5850 5850 5849 5848 5847 5846 5845 5843 5841 5840 5838 5835 5833 5831 5830 5829 5828 5826 5825 5824
5834 5835 5836 5837 5838 5839 5840 5841 5842 5843 5844 5845 5846 5847 5847 5848 5848 5849 5849 5849 5849 5849 5848 5847 5847 5846 5845 5844 5843 5842 5840 5839 5837 5835 5833 5831 5829 5828 5826 5825 5823 5821 5820
5830 5831 5832 5833 5834 5835 5837 5837 5839 5839 5840 5841 5842 5843 5844 5845 5845 5846 5846 5846 5846 5846 5845 5844 5844 5843 5842 5841 5840 5839 5837 5836 5834 5833 5831 5829 5827 5825 5823 5822 5820 5817 5815
5826 5827 5828 5829 5830 5831 5833 5834 5835 5836 5837 5838 5839 5840 5841 5842 5842 5843 5843 5843 5843 5843 5842 5841 5841 5840 5839 5838 5836 5835 5834 5833 5831 5830 5828 5826 5824 5822 5820 5818 5816 5813 5811
5821 5823 5824 5825 5826 5827 5829 5830 5831 5832 5833 5834 5835 5836 5837 5838 5839 5839 5839 5839 5840 5839 5839 5838 5837 5837 5835 5834 5833 5831 5830 5829 5828 5826 5824 5822 5820 5818 5816 5813 5811 5809 5806
5817 5819 5820 5821 5822 5823 5824 5826 5827 5828 5829 5830 5831 5832 5833 5834 5835 5835 5836 5836 5836 5836 5835 5835 5834 5833 5832 5831 5829 5828 5826 5825 5824 5822 5820 5818 5816 5813 5811 5808 5805 5803 5800
5813 5814 5816 5817 5818 5819 5820 5822 5823 5824 5825 5826 5827 5828 5829 5830 5831 5831 5832 5832 5832 5831 5831 5831 5830 5829 5828 5827 5826 5824 5822 5820 5819 5817 5815 5813 5810 5808 5805 5802 5799 5797 5794
5809 5810 5811 5812 5813 5815 5816 5818 5819 5820 5821 5822 5823 5824 5825 5825 5826 5827 5827 5827 5827 5827 5827 5826 5826 5825 5824 5822 5821 5820 5817 5815 5813 5811 5809 5807 5804 5801 5799 5796 5793 5790 5786
5805 5806 5807 5808 5809 5810 5812 5813 5814 5815 5816 5817 5818 5819 5820 5821 5822 5823 5823 5823 5823 5823 5822 5822 5821 5820 5819 5817 5816 5814 5812 5810 5808 5805 5803 5801 5798 5795 5792 5789 5786 5782 5778
5800 5801 5802 5803 5804 5806 5807 5808 5810 5811 5811 5812 5813 5814 5815 5817 5817 5818 5818 5818 5818 5818 5818 5817 5816 5815 5814 5812 5810 5808 5806 5804 5801 5799 5797 5794 5791 5788 5785 5781 5778 5774 5770
5796 5796 5797 5798 5800 5801 5803 5804 5805 5806 5807 5808 5809 5810 5810 5812 5812 5813 5813 5813 5813 5813 5812 5812 5811 5809 5808 5806 5805 5802 5800 5798 5795 5793 5790 5787 5784 5781 5777 5773 5769 5766 5762
5791 5792 5793 5794 5795 5797 5798 5799 5800 5801 5802 5803 5804 5805 5806 5807 5807 5808 5808 5808 5808 5807 5806 5806 5805 5804 5802 5801 5799 5796 5794 5792 5789 5786 5784 5781 5777 5774 5770 5766 5762 5758 5753
5787 5788 5789 5790 5791 5792 5794 5795 5796 5796 5797 5798 5799 5799 5800 5801 5802 5802 5803 5802 5802 5801 5801 5800 5799 5798 5796 5795 5792 5790 5788 5785 5782 5780 5777 5773 5770 5766 5762 5758 5754 5749 5745
5782 5783 5784 5785 5786 5788 5789 5790 5791 5792 5792 5793 5794 5795 5795 5796 5797 5797 5797 5797 5796 5796 5795 5794 5793 5792 5790 5788 5786 5784 5781 5778 5775 5772 5769 5765 5762 5758 5754 5750 5745 5741 5736
5778 5779 5780 5781 5782 5783 5784 5785 5786 5787 5788 5788 5789 5789 5790 5790 5790 5791 5791 5791 5790 5789 5789 5788 5786 5785 5783 5781 5779 5777 5774 5771 5768 5764 5761 5757 5753 5749 5745 5741 5736 5731 5726
5774 5775 5776 5776 5777 5778 5779 5780 5781 5782 5782 5783 5783 5784 5784 5784 5785 5785 5785 5784 5784 5783 5782 5781 5780 5778 5776 5774 5772 5769 5766 5763 5760 5756 5753 5749 5745 5741 5736 5732 5727 5722 5716
5769 5770 5771 5772 5772 5773 5773 5774 5775 5776 5777 5777 5778 5778 5778 5778 5778 5778 5778 5778 5777 5776 5775 5774 5772 5770 5768 5766 5764 5761 5758 5755 5751 5747 5743 5739 5735 5731 5727 5722 5717 5712 5706
5764 5765 5766 5766 5767 5767 5768 5769 5769 5770 5771 5771 5772 5772 5772 5772 5772 5772 5771 5771 5770 5769 5768 5766 5764 5762 5760 5758 5755 5752 5749 5746 5742 5738 5734 5730 5726 5721 5717 5712 5707 5701 5696
5759 5760 5760 5761 5761 5762 5762 5763 5763 5764 5765 5765 5765 5765 5766 5765 5765 5765 5764 5763 5762 5761 5760 5758 5756 5754 5752 5750 5747 5744 5740 5737 5733 5729 5725 5720 5716 5711 5707 5702 5697 5691 5685
5753 5754 5754 5755 5755 5756 5756 5757 5757 5757 5758 5758 5758 5759 5758 5758 5758 5757 5756 5755 5754 5753 5751 5750 5748 5746 5743 5741 5738 5734 5731 5727 5723 5719 5715 5711 5706 5701 5697 5692 5686 5681 5675
5747 5748 5748 5749 5749 5750 5750 5750 5750 5751 5751 5751 5751 5751 5751 5751 5750 5749 5748 5747 5746 5744 5743 5741 5739 5737 5734 5731 5728 5725 5721 5718 5714 5709 5705 5701 5696 5691 5687 5681 5676 5670 5664
5740 5741 5742 5742 5743 5743 5743 5743 5744 5744 5744 5744 5744 5743 5743 5743 5742 5741 5740 5739 5737 5736 5734 5732 5730 5728 5725 5722 5718 5715 5712 5708 5704 5699 5695 5690 5686 5681 5676 5671 5665 5659 5653
5733 5734 5735 5735 5736 5736 5736 5737 5737 5737 5737 5736 5736 5736 5736 5735 5734 5733 5732 5730 5729 5727 5725 5723 5721 5718 5715 5712 5709 5705 5701 5697 5693 5689 5685 5680 5675 5670 5665 5660 5654 5648 5642
5726 5727 5727 5728 5728 5729 5729 5729 5729 5729 5729 5729 5729 5728 5728 5727 5726 5724 5723 5721 5720 5718 5716 5714 5711 5708 5705 5702 5699 5695 5691 5687 5683 5679 5674 5669 5664 5659 5654 5648 5642 5636 5630
5718 5719 5720 5720 5721 5721 5721 5722 5722 5722 5721 5721 5721 5720 5719 5718 5717 5715 5714 5712 5711 5709 5706 5704 5701 5698 5695 5692 5689 5685 5681 5677 5673 5668 5663 5659 5654 5648 5643 5637 5631 5625 5619